TimePDT,TemperatureF,Dew PointF,Humidity,Sea Level PressureIn,VisibilityMPH,Wind Direction,Wind SpeedMPH,Gust SpeedMPH,PrecipitationIn,Events,Conditions,WindDirDegrees,DateUTC
12:53 AM,45.0,19.0,36,30.21,10.0,Variable,3.5,-,N/A,,Clear,0,2012-10-03 07:53:00
1:53 AM,42.1,21.0,43,30.23,10.0,Calm,Calm,-,N/A,,Partly Cloudy,0,2012-10-03 08:53:00
2:53 AM,43.0,30.0,60,30.27,10.0,North,8.1,17.3,N/A,,Clear,360,2012-10-03 09:53:00
3:53 AM,39.9,30.0,68,30.31,10.0,Calm,Calm,-,N/A,,Clear,0,2012-10-03 10:53:00
4:53 AM,37.9,30.9,76,30.34,10.0,NE,3.5,-,N/A,,Clear,40,2012-10-03 11:53:00
5:53 AM,36.0,30.0,79,30.38,9.0,Calm,Calm,-,N/A,,Clear,0,2012-10-03 12:53:00
6:53 AM,34.0,30.0,85,30.40,10.0,ENE,3.5,-,N/A,,Clear,70,2012-10-03 13:53:00
7:53 AM,37.9,30.9,76,30.42,10.0,Calm,Calm,-,N/A,,Clear,0,2012-10-03 14:53:00
8:53 AM,43.0,30.9,62,30.45,10.0,Calm,Calm,-,N/A,,Clear,0,2012-10-03 15:53:00
9:53 AM,48.0,32.0,54,30.45,10.0,Calm,Calm,-,N/A,,Clear,0,2012-10-03 16:53:00
10:53 AM,53.1,32.0,45,30.44,10.0,Calm,Calm,-,N/A,,Clear,0,2012-10-03 17:53:00
11:53 AM,57.0,25.0,29,30.43,10.0,East,11.5,-,N/A,,Clear,100,2012-10-03 18:53:00
12:53 PM,57.0,25.0,29,30.43,10.0,East,8.1,17.3,N/A,,Partly Cloudy,90,2012-10-03 19:53:00
1:53 PM,57.9,26.1,30,30.41,10.0,Variable,5.8,-,N/A,,Clear,0,2012-10-03 20:53:00
2:53 PM,60.1,25.0,26,30.38,10.0,ENE,9.2,-,N/A,,Partly Cloudy,70,2012-10-03 21:53:00
3:53 PM,60.1,24.1,25,30.38,10.0,East,10.4,-,N/A,,Partly Cloudy,90,2012-10-03 22:53:00
4:53 PM,60.1,26.1,27,30.38,10.0,ENE,9.2,-,N/A,,Scattered Clouds,60,2012-10-03 23:53:00
5:53 PM,57.2,23.0,27,30.36,10.0,NE,6.9,-,N/A,,Partly Cloudy,50,2012-10-04 00:53:00
6:53 PM,52.0,25.0,35,30.39,10.0,NE,3.5,-,N/A,,Clear,40,2012-10-04 01:53:00
7:53 PM,52.0,26.1,37,30.38,10.0,NE,3.5,-,N/A,,Clear,50,2012-10-04 02:53:00
8:53 PM,48.0,27.0,44,30.38,10.0,Calm,Calm,-,N/A,,Clear,0,2012-10-04 03:53:00
9:53 PM,45.0,26.1,48,30.36,10.0,East,4.6,-,N/A,,Clear,80,2012-10-04 04:53:00
10:53 PM,46.0,26.1,46,30.35,10.0,NE,4.6,-,N/A,,Clear,50,2012-10-04 05:53:00
11:53 PM,44.1,27.0,51,30.35,10.0,West,4.6,-,N/A,,Clear,260,2012-10-04 06:53:00